Time,TemperatureF,DewpointF,PressureIn,WindDirection,WindDirectionDegrees,WindSpeedMPH,WindSpeedGustMPH,Humidity,HourlyPrecipIn,Conditions,Clouds,dailyrainin,SoftwareType,DateUTC
2013-01-13 00:05:00,21.2,10.6,30.19,North,360,16.0,18.0,63,0.00,,,0.00,Wunderground v.1.15,2013-01-13 06:05:00,
2013-01-13 00:11:00,21.1,10.5,30.18,North,9,16.0,21.0,63,0.00,,,0.00,Wunderground v.1.15,2013-01-13 06:11:00,
2013-01-13 00:17:00,20.9,10.3,30.18,North,360,17.0,21.0,63,0.00,,,0.00,Wunderground v.1.15,2013-01-13 06:17:00,
2013-01-13 00:22:00,20.7,10.4,30.18,NNW,335,16.0,17.0,64,0.00,,,0.00,Wunderground v.1.15,2013-01-13 06:22:00,
2013-01-13 00:27:00,20.6,10.3,30.18,North,355,15.0,17.0,64,0.00,,,0.00,Wunderground v.1.15,2013-01-13 06:27:00,
2013-01-13 00:33:00,20.5,10.2,30.18,North,9,15.0,15.0,64,0.00,,,0.00,Wunderground v.1.15,2013-01-13 06:33:00,
2013-01-13 00:38:00,20.3,10.1,30.18,North,10,14.0,16.0,64,0.00,,,0.00,Wunderground v.1.15,2013-01-13 06:38:00,
2013-01-13 00:43:00,20.2,10.3,30.17,North,360,14.0,15.0,65,0.00,,,0.00,Wunderground v.1.15,2013-01-13 06:43:00,
2013-01-13 00:49:00,20.1,10.6,30.17,North,9,13.0,16.0,66,0.00,,,0.00,Wunderground v.1.15,2013-01-13 06:49:00,
2013-01-13 00:55:00,20.0,10.1,30.17,North,9,14.0,19.0,65,0.00,,,0.00,Wunderground v.1.15,2013-01-13 06:55:00,
2013-01-13 01:00:00,20.0,10.1,30.17,North,9,15.0,17.0,65,0.00,,,0.00,Wunderground v.1.15,2013-01-13 07:00:00,
2013-01-13 01:06:00,19.9,10.0,30.17,NNE,14,15.0,21.0,65,0.00,,,0.00,Wunderground v.1.15,2013-01-13 07:06:00,
2013-01-13 01:11:00,19.8,10.3,30.17,NNE,14,15.0,16.0,66,0.00,,,0.00,Wunderground v.1.15,2013-01-13 07:11:00,
2013-01-13 01:16:00,19.7,10.2,30.17,NNE,17,15.0,16.0,66,0.00,,,0.00,Wunderground v.1.15,2013-01-13 07:16:00,
2013-01-13 01:22:00,19.7,10.2,30.18,North,9,14.0,15.0,66,0.00,,,0.00,Wunderground v.1.15,2013-01-13 07:22:00,
2013-01-13 01:27:00,19.6,10.4,30.19,NNW,344,12.0,15.0,67,0.00,,,0.00,Wunderground v.1.15,2013-01-13 07:27:00,
2013-01-13 01:33:00,19.5,10.3,30.19,North,9,12.0,15.0,67,0.00,,,0.00,Wunderground v.1.15,2013-01-13 07:33:00,
2013-01-13 01:38:00,19.5,10.6,30.19,NNW,346,13.0,15.0,68,0.00,,,0.00,Wunderground v.1.15,2013-01-13 07:38:00,
2013-01-13 01:43:00,19.4,10.6,30.20,North,9,12.0,17.0,68,0.00,,,0.00,Wunderground v.1.15,2013-01-13 07:43:00,
2013-01-13 01:49:00,19.3,10.5,30.20,North,350,14.0,17.0,68,0.00,,,0.00,Wunderground v.1.15,2013-01-13 07:49:00,
2013-01-13 01:55:00,19.2,10.0,30.21,North,360,14.0,16.0,67,0.00,,,0.00,Wunderground v.1.15,2013-01-13 07:55:00,
2013-01-13 02:00:00,19.1,10.6,30.22,NNW,347,13.0,13.0,69,0.00,,,0.00,Wunderground v.1.15,2013-01-13 08:00:00,
2013-01-13 02:05:00,19.0,10.5,30.22,NNW,338,13.0,20.0,69,0.00,,,0.00,Wunderground v.1.15,2013-01-13 08:05:00,
2013-01-13 02:11:00,18.9,10.7,30.23,North,9,13.0,13.0,70,0.00,,,0.00,Wunderground v.1.15,2013-01-13 08:11:00,
2013-01-13 02:16:00,18.9,10.7,30.23,NNW,340,12.0,15.0,70,0.00,,,0.00,Wunderground v.1.15,2013-01-13 08:16:00,
2013-01-13 02:21:00,18.8,10.3,30.23,North,9,12.0,16.0,69,0.00,,,0.00,Wunderground v.1.15,2013-01-13 08:21:00,
2013-01-13 02:27:00,18.6,9.5,30.23,North,360,13.0,20.0,67,0.00,,,0.00,Wunderground v.1.15,2013-01-13 08:27:00,
2013-01-13 02:32:00,18.6,9.8,30.23,NNW,338,14.0,14.0,68,0.00,,,0.00,Wunderground v.1.15,2013-01-13 08:32:00,
2013-01-13 02:37:00,18.4,9.9,30.24,North,11,14.0,16.0,69,0.00,,,0.00,Wunderground v.1.15,2013-01-13 08:37:00,
2013-01-13 02:43:00,18.2,9.7,30.23,North,355,15.0,18.0,69,0.00,,,0.00,Wunderground v.1.15,2013-01-13 08:43:00,
2013-01-13 02:48:00,18.1,10.0,30.24,North,9,17.0,20.0,70,0.00,,,0.00,Wunderground v.1.15,2013-01-13 08:48:00,
2013-01-13 02:53:00,18.0,9.9,30.24,NNW,346,16.0,18.0,70,0.00,,,0.00,Wunderground v.1.15,2013-01-13 08:53:00,
2013-01-13 02:59:00,17.9,9.4,30.25,NNE,14,15.0,18.0,69,0.00,,,0.00,Wunderground v.1.15,2013-01-13 08:59:00,
2013-01-13 03:04:00,17.8,9.3,30.25,North,9,15.0,19.0,69,0.00,,,0.00,Wunderground v.1.15,2013-01-13 09:04:00,
2013-01-13 03:10:00,17.6,8.8,30.25,NNW,337,16.0,17.0,68,0.00,,,0.00,Wunderground v.1.15,2013-01-13 09:10:00,
2013-01-13 03:15:00,17.5,8.7,30.25,North,355,15.0,19.0,68,0.00,,,0.00,Wunderground v.1.15,2013-01-13 09:15:00,
2013-01-13 03:20:00,17.3,8.5,30.25,North,355,15.0,17.0,68,0.00,,,0.00,Wunderground v.1.15,2013-01-13 09:20:00,
2013-01-13 03:26:00,17.2,8.4,30.25,North,350,15.0,17.0,68,0.00,,,0.00,Wunderground v.1.15,2013-01-13 09:26:00,
2013-01-13 03:32:00,17.1,7.7,30.25,NNE,15,14.0,16.0,66,0.00,,,0.00,Wunderground v.1.15,2013-01-13 09:32:00,
2013-01-13 03:39:00,17.0,7.3,30.24,North,9,16.0,22.0,65,0.00,,,0.00,Wunderground v.1.15,2013-01-13 09:39:00,
2013-01-13 03:44:00,16.9,7.2,30.25,North,360,17.0,17.0,65,0.00,,,0.00,Wunderground v.1.15,2013-01-13 09:44:00,
2013-01-13 03:50:00,16.9,7.2,30.25,NNW,347,17.0,18.0,65,0.00,,,0.00,Wunderground v.1.15,2013-01-13 09:50:00,
2013-01-13 03:55:00,16.9,7.8,30.25,North,11,15.0,18.0,67,0.00,,,0.00,Wunderground v.1.15,2013-01-13 09:55:00,
2013-01-13 04:00:00,16.9,7.8,30.25,North,355,14.0,18.0,67,0.00,,,0.00,Wunderground v.1.15,2013-01-13 10:00:00,
2013-01-13 04:06:00,16.7,7.6,30.25,North,9,14.0,18.0,67,0.00,,,0.00,Wunderground v.1.15,2013-01-13 10:06:00,
2013-01-13 04:11:00,16.7,8.0,30.25,North,350,14.0,15.0,68,0.00,,,0.00,Wunderground v.1.15,2013-01-13 10:11:00,
2013-01-13 04:17:00,16.6,7.9,30.25,NNW,340,14.0,17.0,68,0.00,,,0.00,Wunderground v.1.15,2013-01-13 10:17:00,
2013-01-13 04:22:00,16.5,7.8,30.25,North,360,14.0,14.0,68,0.00,,,0.00,Wunderground v.1.15,2013-01-13 10:22:00,
2013-01-13 04:28:00,16.4,7.7,30.25,NNW,346,15.0,18.0,68,0.00,,,0.00,Wunderground v.1.15,2013-01-13 10:28:00,
2013-01-13 04:33:00,16.3,7.6,30.25,North,10,15.0,19.0,68,0.00,,,0.00,Wunderground v.1.15,2013-01-13 10:33:00,
2013-01-13 04:38:00,16.3,7.9,30.25,NNW,333,16.0,21.0,69,0.00,,,0.00,Wunderground v.1.15,2013-01-13 10:38:00,
2013-01-13 04:44:00,16.1,7.7,30.25,North,9,16.0,24.0,69,0.00,,,0.00,Wunderground v.1.15,2013-01-13 10:44:00,
2013-01-13 04:50:00,15.9,7.5,30.25,NNW,348,16.0,16.0,69,0.00,,,0.00,Wunderground v.1.15,2013-01-13 10:50:00,
2013-01-13 04:55:00,15.8,7.7,30.25,North,360,15.0,19.0,70,0.00,,,0.00,Wunderground v.1.15,2013-01-13 10:55:00,
2013-01-13 05:00:00,15.6,7.6,30.25,NNW,342,15.0,16.0,70,0.00,,,0.00,Wunderground v.1.15,2013-01-13 11:00:00,
2013-01-13 05:06:00,15.4,7.4,30.26,NNW,342,15.0,19.0,70,0.00,,,0.00,Wunderground v.1.15,2013-01-13 11:06:00,
2013-01-13 05:12:00,15.3,7.6,30.26,North,355,14.0,15.0,71,0.00,,,0.00,Wunderground v.1.15,2013-01-13 11:12:00,
2013-01-13 05:17:00,15.3,7.9,30.26,North,360,13.0,15.0,72,0.00,,,0.00,Wunderground v.1.15,2013-01-13 11:17:00,
2013-01-13 05:23:00,15.1,7.7,30.26,NNW,348,12.0,17.0,72,0.00,,,0.00,Wunderground v.1.15,2013-01-13 11:23:00,
2013-01-13 05:28:00,15.0,7.6,30.26,NNW,344,12.0,17.0,72,0.00,,,0.00,Wunderground v.1.15,2013-01-13 11:28:00,
2013-01-13 05:33:00,15.0,7.6,30.27,NNE,17,13.0,15.0,72,0.00,,,0.00,Wunderground v.1.15,2013-01-13 11:33:00,
2013-01-13 05:39:00,14.8,7.4,30.27,North,9,13.0,15.0,72,0.00,,,0.00,Wunderground v.1.15,2013-01-13 11:39:00,
2013-01-13 05:44:00,14.7,7.6,30.27,North,9,11.0,12.0,73,0.00,,,0.00,Wunderground v.1.15,2013-01-13 11:44:00,
2013-01-13 05:50:00,14.5,7.4,30.27,NNW,340,11.0,14.0,73,0.00,,,0.00,Wunderground v.1.15,2013-01-13 11:50:00,
2013-01-13 05:55:00,14.4,7.3,30.27,North,351,12.0,16.0,73,0.00,,,0.00,Wunderground v.1.15,2013-01-13 11:55:00,
2013-01-13 06:01:00,14.3,7.2,30.28,North,9,13.0,20.0,73,0.00,,,0.00,Wunderground v.1.15,2013-01-13 12:01:00,
2013-01-13 06:07:00,14.1,7.0,30.29,North,9,13.0,20.0,73,0.00,,,0.00,Wunderground v.1.15,2013-01-13 12:07:00,
2013-01-13 06:12:00,14.0,7.2,30.29,North,350,11.0,13.0,74,0.00,,,0.00,Wunderground v.1.15,2013-01-13 12:12:00,
2013-01-13 06:18:00,14.0,7.2,30.29,NNE,19,11.0,13.0,74,0.00,,,0.00,Wunderground v.1.15,2013-01-13 12:18:00,
2013-01-13 06:23:00,13.9,7.4,30.30,NNE,13,10.0,11.0,75,0.00,,,0.00,Wunderground v.1.15,2013-01-13 12:23:00,
2013-01-13 06:29:00,13.8,7.3,30.30,North,9,10.0,12.0,75,0.00,,,0.00,Wunderground v.1.15,2013-01-13 12:29:00,
2013-01-13 06:34:00,13.7,7.2,30.31,NNW,348,10.0,12.0,75,0.00,,,0.00,Wunderground v.1.15,2013-01-13 12:34:00,
2013-01-13 06:40:00,13.6,7.1,30.30,North,355,11.0,14.0,75,0.00,,,0.00,Wunderground v.1.15,2013-01-13 12:40:00,
2013-01-13 06:46:00,13.5,7.0,30.31,NNW,344,10.0,14.0,75,0.00,,,0.00,Wunderground v.1.15,2013-01-13 12:46:00,
2013-01-13 06:52:00,13.5,7.0,30.31,North,355,9.0,11.0,75,0.00,,,0.00,Wunderground v.1.15,2013-01-13 12:52:00,
2013-01-13 06:58:00,13.4,7.0,30.31,North,350,11.0,18.0,75,0.00,,,0.00,Wunderground v.1.15,2013-01-13 12:58:00,
2013-01-13 07:03:00,13.3,6.9,30.31,North,355,12.0,14.0,75,0.00,,,0.00,Wunderground v.1.15,2013-01-13 13:03:00,
2013-01-13 07:09:00,13.3,6.9,30.32,North,350,12.0,16.0,75,0.00,,,0.00,Wunderground v.1.15,2013-01-13 13:09:00,
2013-01-13 07:14:00,13.3,6.9,30.32,North,9,12.0,13.0,75,0.00,,,0.00,Wunderground v.1.15,2013-01-13 13:14:00,
2013-01-13 07:20:00,13.2,6.8,30.33,NNW,347,10.0,11.0,75,0.00,,,0.00,Wunderground v.1.15,2013-01-13 13:20:00,
2013-01-13 07:25:00,13.2,6.8,30.33,North,9,11.0,15.0,75,0.00,,,0.00,Wunderground v.1.15,2013-01-13 13:25:00,
2013-01-13 07:30:00,13.1,6.7,30.33,North,360,11.0,11.0,75,0.00,,,0.00,Wunderground v.1.15,2013-01-13 13:30:00,
2013-01-13 07:36:00,13.1,6.7,30.34,North,360,11.0,13.0,75,0.00,,,0.00,Wunderground v.1.15,2013-01-13 13:36:00,
2013-01-13 07:41:00,13.0,6.9,30.34,North,355,10.0,11.0,76,0.00,,,0.00,Wunderground v.1.15,2013-01-13 13:41:00,
2013-01-13 07:47:00,13.0,6.9,30.34,NNE,19,9.0,11.0,76,0.00,,,0.00,Wunderground v.1.15,2013-01-13 13:47:00,
2013-01-13 07:52:00,13.0,6.9,30.35,NNW,346,8.0,11.0,76,0.00,,,0.00,Wunderground v.1.15,2013-01-13 13:52:00,
2013-01-13 07:57:00,12.9,6.8,30.35,North,355,8.0,11.0,76,0.00,,,0.00,Wunderground v.1.15,2013-01-13 13:57:00,
2013-01-13 08:03:00,12.9,6.8,30.35,North,360,8.0,10.0,76,0.00,,,0.00,Wunderground v.1.15,2013-01-13 14:03:00,
2013-01-13 08:08:00,13.0,6.9,30.36,NNW,346,8.0,11.0,76,0.00,,,0.00,Wunderground v.1.15,2013-01-13 14:08:00,
2013-01-13 08:14:00,13.1,7.0,30.36,NNW,348,9.0,11.0,76,0.00,,,0.00,Wunderground v.1.15,2013-01-13 14:14:00,
2013-01-13 08:19:00,13.2,7.0,30.36,North,350,9.0,11.0,76,0.00,,,0.00,Wunderground v.1.15,2013-01-13 14:19:00,
2013-01-13 08:25:00,13.4,7.2,30.37,North,355,9.0,9.0,76,0.00,,,0.00,Wunderground v.1.15,2013-01-13 14:25:00,
2013-01-13 08:30:00,13.5,7.0,30.37,North,9,9.0,9.0,75,0.00,,,0.00,Wunderground v.1.15,2013-01-13 14:30:00,
2013-01-13 08:36:00,13.7,6.9,30.38,NNW,336,10.0,13.0,74,0.00,,,0.00,Wunderground v.1.15,2013-01-13 14:36:00,
2013-01-13 08:41:00,14.1,7.3,30.38,North,360,9.0,10.0,74,0.00,,,0.00,Wunderground v.1.15,2013-01-13 14:41:00,
2013-01-13 08:46:00,14.4,7.3,30.38,NNW,338,9.0,11.0,73,0.00,,,0.00,Wunderground v.1.15,2013-01-13 14:46:00,
2013-01-13 08:52:00,14.5,7.4,30.38,North,9,9.0,9.0,73,0.00,,,0.00,Wunderground v.1.15,2013-01-13 14:52:00,
2013-01-13 08:57:00,14.7,7.3,30.38,NNW,345,10.0,14.0,72,0.00,,,0.00,Wunderground v.1.15,2013-01-13 14:57:00,
2013-01-13 09:03:00,15.0,7.3,30.39,NNW,336,11.0,14.0,71,0.00,,,0.00,Wunderground v.1.15,2013-01-13 15:03:00,
2013-01-13 09:08:00,15.1,7.1,30.39,North,9,11.0,14.0,70,0.00,,,0.00,Wunderground v.1.15,2013-01-13 15:08:00,
2013-01-13 09:14:00,14.9,6.9,30.39,NNW,340,12.0,12.0,70,0.00,,,0.00,Wunderground v.1.15,2013-01-13 15:14:00,
2013-01-13 09:19:00,15.3,7.3,30.39,North,355,11.0,14.0,70,0.00,,,0.00,Wunderground v.1.15,2013-01-13 15:19:00,
2013-01-13 09:25:00,15.6,7.6,30.40,NNW,332,10.0,14.0,70,0.00,,,0.00,Wunderground v.1.15,2013-01-13 15:25:00,
2013-01-13 09:30:00,15.7,7.0,30.40,North,355,11.0,11.0,68,0.00,,,0.00,Wunderground v.1.15,2013-01-13 15:30:00,
2013-01-13 09:36:00,15.9,7.5,30.40,NNW,339,11.0,13.0,69,0.00,,,0.00,Wunderground v.1.15,2013-01-13 15:36:00,
2013-01-13 09:42:00,16.4,7.7,30.41,North,355,11.0,13.0,68,0.00,,,0.00,Wunderground v.1.15,2013-01-13 15:42:00,
2013-01-13 09:47:00,16.3,7.3,30.41,North,360,11.0,14.0,67,0.00,,,0.00,Wunderground v.1.15,2013-01-13 15:47:00,
2013-01-13 09:53:00,16.6,7.5,30.41,NNW,344,11.0,16.0,67,0.00,,,0.00,Wunderground v.1.15,2013-01-13 15:53:00,
2013-01-13 09:58:00,16.9,7.8,30.41,NNW,336,11.0,16.0,67,0.00,,,0.00,Wunderground v.1.15,2013-01-13 15:58:00,
2013-01-13 10:04:00,17.4,8.3,30.41,NNW,327,10.0,13.0,67,0.00,,,0.00,Wunderground v.1.15,2013-01-13 16:04:00,
2013-01-13 10:09:00,17.5,7.7,30.42,NW,318,10.0,14.0,65,0.00,,,0.00,Wunderground v.1.15,2013-01-13 16:09:00,
2013-01-13 10:15:00,17.9,7.8,30.41,NNW,343,10.0,13.0,64,0.00,,,0.00,Wunderground v.1.15,2013-01-13 16:15:00,
2013-01-13 10:21:00,17.7,7.6,30.42,North,355,10.0,10.0,64,0.00,,,0.00,Wunderground v.1.15,2013-01-13 16:21:00,
2013-01-13 10:26:00,18.2,8.1,30.42,North,355,10.0,11.0,64,0.00,,,0.00,Wunderground v.1.15,2013-01-13 16:26:00,
2013-01-13 10:31:00,18.3,7.8,30.42,NNW,327,10.0,11.0,63,0.00,,,0.00,Wunderground v.1.15,2013-01-13 16:31:00,
2013-01-13 10:37:00,18.4,7.9,30.42,NNW,336,11.0,13.0,63,0.00,,,0.00,Wunderground v.1.15,2013-01-13 16:37:00,
2013-01-13 10:42:00,18.8,8.3,30.43,NW,314,10.0,11.0,63,0.00,,,0.00,Wunderground v.1.15,2013-01-13 16:42:00,
2013-01-13 10:48:00,19.2,8.7,30.42,NNE,15,10.0,13.0,63,0.00,,,0.00,Wunderground v.1.15,2013-01-13 16:48:00,
2013-01-13 10:53:00,19.4,8.1,30.42,NW,325,10.0,13.0,61,0.00,,,0.00,Wunderground v.1.15,2013-01-13 16:53:00,
2013-01-13 10:59:00,19.5,8.2,30.42,North,9,10.0,13.0,61,0.00,,,0.00,Wunderground v.1.15,2013-01-13 16:59:00,
2013-01-13 11:04:00,19.9,7.9,30.42,North,360,9.0,10.0,59,0.00,,,0.00,Wunderground v.1.15,2013-01-13 17:04:00,
2013-01-13 11:09:00,20.3,7.9,30.42,NNW,329,9.0,11.0,58,0.00,,,0.00,Wunderground v.1.15,2013-01-13 17:09:00,
2013-01-13 11:15:00,19.7,7.3,30.41,North,9,9.0,12.0,58,0.00,,,0.00,Wunderground v.1.15,2013-01-13 17:15:00,
2013-01-13 11:20:00,20.4,8.3,30.41,NNW,342,9.0,12.0,59,0.00,,,0.00,Wunderground v.1.15,2013-01-13 17:20:00,
2013-01-13 11:25:00,20.7,7.9,30.40,NW,323,9.0,12.0,57,0.00,,,0.00,Wunderground v.1.15,2013-01-13 17:25:00,
2013-01-13 11:31:00,20.9,8.0,30.40,NNE,26,9.0,9.0,57,0.00,,,0.00,Wunderground v.1.15,2013-01-13 17:31:00,
2013-01-13 11:37:00,21.3,8.0,30.39,NNW,337,8.0,12.0,56,0.00,,,0.00,Wunderground v.1.15,2013-01-13 17:37:00,
2013-01-13 11:42:00,21.2,7.1,30.39,NNW,339,9.0,11.0,54,0.00,,,0.00,Wunderground v.1.15,2013-01-13 17:42:00,
2013-01-13 11:47:00,21.5,7.8,30.39,North,355,9.0,11.0,55,0.00,,,0.00,Wunderground v.1.15,2013-01-13 17:47:00,
2013-01-13 11:53:00,22.2,7.6,30.39,North,9,8.0,10.0,53,0.00,,,0.00,Wunderground v.1.15,2013-01-13 17:53:00,
2013-01-13 11:58:00,22.2,7.6,30.38,NNW,336,9.0,12.0,53,0.00,,,0.00,Wunderground v.1.15,2013-01-13 17:58:00,
2013-01-13 12:03:00,22.1,7.6,30.38,NNW,336,10.0,11.0,53,0.00,,,0.00,Wunderground v.1.15,2013-01-13 18:03:00,
2013-01-13 12:09:00,22.1,7.6,30.39,NNW,329,9.0,11.0,53,0.00,,,0.00,Wunderground v.1.15,2013-01-13 18:09:00,
2013-01-13 12:14:00,22.1,7.1,30.38,North,360,9.0,13.0,52,0.00,,,0.00,Wunderground v.1.15,2013-01-13 18:14:00,
2013-01-13 12:20:00,23.0,8.0,30.37,NNW,333,8.0,8.0,52,0.00,,,0.00,Wunderground v.1.15,2013-01-13 18:20:00,
2013-01-13 12:25:00,23.3,6.9,30.37,NNW,346,9.0,14.0,49,0.00,,,0.00,Wunderground v.1.15,2013-01-13 18:25:00,
2013-01-13 12:30:00,23.3,7.4,30.37,NNW,347,10.0,12.0,50,0.00,,,0.00,Wunderground v.1.15,2013-01-13 18:30:00,
2013-01-13 12:36:00,22.9,6.6,30.37,North,355,11.0,14.0,49,0.00,,,0.00,Wunderground v.1.15,2013-01-13 18:36:00,
2013-01-13 12:42:00,23.6,7.7,30.37,NNW,328,9.0,10.0,50,0.00,,,0.00,Wunderground v.1.15,2013-01-13 18:42:00,
2013-01-13 12:47:00,24.0,7.6,30.36,NNW,334,9.0,13.0,49,0.00,,,0.00,Wunderground v.1.15,2013-01-13 18:47:00,
2013-01-13 12:53:00,24.3,7.4,30.36,NNW,333,9.0,11.0,48,0.00,,,0.00,Wunderground v.1.15,2013-01-13 18:53:00,
2013-01-13 12:58:00,24.4,7.5,30.36,NNW,336,10.0,11.0,48,0.00,,,0.00,Wunderground v.1.15,2013-01-13 18:58:00,
2013-01-13 13:04:00,24.7,7.8,30.35,NNE,17,10.0,10.0,48,0.00,,,0.00,Wunderground v.1.15,2013-01-13 19:04:00,
2013-01-13 13:11:00,24.8,7.9,30.35,NNW,332,9.0,10.0,48,0.00,,,0.00,Wunderground v.1.15,2013-01-13 19:11:00,
2013-01-13 13:17:00,25.1,7.2,30.35,North,355,8.0,11.0,46,0.00,,,0.00,Wunderground v.1.15,2013-01-13 19:17:00,
2013-01-13 13:22:00,24.9,7.5,30.35,NNW,336,9.0,9.0,47,0.00,,,0.00,Wunderground v.1.15,2013-01-13 19:22:00,
2013-01-13 13:28:00,25.7,6.8,30.34,NNW,336,9.0,13.0,44,0.00,,,0.00,Wunderground v.1.15,2013-01-13 19:28:00,
2013-01-13 13:33:00,25.7,7.7,30.34,North,351,9.0,10.0,46,0.00,,,0.00,Wunderground v.1.15,2013-01-13 19:33:00,
2013-01-13 13:39:00,25.8,7.8,30.34,North,360,9.0,10.0,46,0.00,,,0.00,Wunderground v.1.15,2013-01-13 19:39:00,
2013-01-13 13:44:00,26.0,7.0,30.34,NNW,336,8.0,9.0,44,0.00,,,0.00,Wunderground v.1.15,2013-01-13 19:44:00,
2013-01-13 13:50:00,26.5,8.0,30.34,NNW,331,9.0,11.0,45,0.00,,,0.00,Wunderground v.1.15,2013-01-13 19:50:00,
2013-01-13 13:55:00,26.4,6.9,30.34,NNE,33,9.0,11.0,43,0.00,,,0.00,Wunderground v.1.15,2013-01-13 19:55:00,
2013-01-13 14:00:00,26.4,6.9,30.34,North,360,9.0,10.0,43,0.00,,,0.00,Wunderground v.1.15,2013-01-13 20:00:00,
2013-01-13 14:06:00,26.4,6.9,30.35,NNE,17,9.0,11.0,43,0.00,,,0.00,Wunderground v.1.15,2013-01-13 20:06:00,
2013-01-13 14:11:00,26.4,6.4,30.35,North,9,9.0,9.0,42,0.00,,,0.00,Wunderground v.1.15,2013-01-13 20:11:00,
2013-01-13 14:17:00,26.8,7.3,30.35,NW,320,8.0,9.0,43,0.00,,,0.00,Wunderground v.1.15,2013-01-13 20:17:00,
2013-01-13 14:22:00,26.9,6.8,30.35,North,355,7.0,8.0,42,0.00,,,0.00,Wunderground v.1.15,2013-01-13 20:22:00,
2013-01-13 14:28:00,27.1,7.5,30.36,NNW,333,6.0,8.0,43,0.00,,,0.00,Wunderground v.1.15,2013-01-13 20:28:00,
2013-01-13 14:33:00,27.4,7.3,30.36,NNW,337,5.0,8.0,42,0.00,,,0.00,Wunderground v.1.15,2013-01-13 20:33:00,
2013-01-13 14:39:00,27.4,6.8,30.36,NNE,26,6.0,8.0,41,0.00,,,0.00,Wunderground v.1.15,2013-01-13 20:39:00,
2013-01-13 14:44:00,27.9,7.2,30.36,NW,321,6.0,9.0,41,0.00,,,0.00,Wunderground v.1.15,2013-01-13 20:44:00,
2013-01-13 14:50:00,28.0,7.8,30.36,NW,325,7.0,9.0,42,0.00,,,0.00,Wunderground v.1.15,2013-01-13 20:50:00,
2013-01-13 14:56:00,28.1,7.9,30.36,NW,319,7.0,9.0,42,0.00,,,0.00,Wunderground v.1.15,2013-01-13 20:56:00,
2013-01-13 15:02:00,27.9,7.2,30.37,NNW,348,8.0,11.0,41,0.00,,,0.00,Wunderground v.1.15,2013-01-13 21:02:00,
2013-01-13 15:08:00,28.3,7.6,30.37,NNW,344,8.0,11.0,41,0.00,,,0.00,Wunderground v.1.15,2013-01-13 21:08:00,
2013-01-13 15:13:00,28.5,7.2,30.36,NW,307,7.0,8.0,40,0.00,,,0.00,Wunderground v.1.15,2013-01-13 21:13:00,
2013-01-13 15:18:00,28.5,7.8,30.36,NNW,344,7.0,11.0,41,0.00,,,0.00,Wunderground v.1.15,2013-01-13 21:18:00,
2013-01-13 15:24:00,28.6,7.3,30.36,North,355,8.0,9.0,40,0.00,,,0.00,Wunderground v.1.15,2013-01-13 21:24:00,
2013-01-13 15:30:00,28.5,8.3,30.36,NW,322,8.0,10.0,42,0.00,,,0.00,Wunderground v.1.15,2013-01-13 21:30:00,
2013-01-13 15:36:00,28.4,7.7,30.36,NNW,344,10.0,12.0,41,0.00,,,0.00,Wunderground v.1.15,2013-01-13 21:36:00,
2013-01-13 15:42:00,28.3,7.0,30.36,NNW,338,10.0,11.0,40,0.00,,,0.00,Wunderground v.1.15,2013-01-13 21:42:00,
2013-01-13 15:48:00,28.5,8.3,30.36,NNW,344,9.0,11.0,42,0.00,,,0.00,Wunderground v.1.15,2013-01-13 21:48:00,
2013-01-13 15:53:00,28.5,7.8,30.36,NNE,12,8.0,8.0,41,0.00,,,0.00,Wunderground v.1.15,2013-01-13 21:53:00,
2013-01-13 15:58:00,28.5,7.8,30.36,North,9,6.0,8.0,41,0.00,,,0.00,Wunderground v.1.15,2013-01-13 21:58:00,
2013-01-13 16:04:00,28.7,7.4,30.36,NNE,19,6.0,9.0,40,0.00,,,0.00,Wunderground v.1.15,2013-01-13 22:04:00,
2013-01-13 16:09:00,28.5,7.2,30.36,North,360,8.0,9.0,40,0.00,,,0.00,Wunderground v.1.15,2013-01-13 22:09:00,
2013-01-13 16:15:00,28.6,7.3,30.37,North,9,7.0,9.0,40,0.00,,,0.00,Wunderground v.1.15,2013-01-13 22:15:00,
2013-01-13 16:20:00,28.5,7.8,30.37,NNW,338,7.0,7.0,41,0.00,,,0.00,Wunderground v.1.15,2013-01-13 22:20:00,
2013-01-13 16:26:00,28.4,7.7,30.37,North,9,6.0,10.0,41,0.00,,,0.00,Wunderground v.1.15,2013-01-13 22:26:00,
2013-01-13 16:31:00,28.4,7.7,30.38,North,10,7.0,8.0,41,0.00,,,0.00,Wunderground v.1.15,2013-01-13 22:31:00,
2013-01-13 16:37:00,28.3,7.6,30.38,NNE,30,7.0,8.0,41,0.00,,,0.00,Wunderground v.1.15,2013-01-13 22:37:00,
2013-01-13 16:43:00,28.1,7.4,30.38,North,10,7.0,10.0,41,0.00,,,0.00,Wunderground v.1.15,2013-01-13 22:43:00,
2013-01-13 16:48:00,28.1,7.9,30.38,North,9,7.0,10.0,42,0.00,,,0.00,Wunderground v.1.15,2013-01-13 22:48:00,
2013-01-13 16:53:00,28.1,9.0,30.37,North,360,6.0,9.0,44,0.00,,,0.00,Wunderground v.1.15,2013-01-13 22:53:00,
2013-01-13 16:59:00,27.9,8.3,30.37,North,9,7.0,10.0,43,0.00,,,0.00,Wunderground v.1.15,2013-01-13 22:59:00,
2013-01-13 17:04:00,27.8,8.2,30.37,North,355,7.0,9.0,43,0.00,,,0.00,Wunderground v.1.15,2013-01-13 23:04:00,
2013-01-13 17:10:00,27.5,8.4,30.37,North,355,7.0,7.0,44,0.00,,,0.00,Wunderground v.1.15,2013-01-13 23:10:00,
2013-01-13 17:16:00,27.2,8.6,30.37,North,9,7.0,9.0,45,0.00,,,0.00,Wunderground v.1.15,2013-01-13 23:16:00,
2013-01-13 17:21:00,27.0,8.5,30.38,North,9,7.0,7.0,45,0.00,,,0.00,Wunderground v.1.15,2013-01-13 23:21:00,
2013-01-13 17:26:00,26.8,8.8,30.38,NNE,14,5.0,7.0,46,0.00,,,0.00,Wunderground v.1.15,2013-01-13 23:26:00,
2013-01-13 17:32:00,26.6,9.1,30.38,North,11,5.0,7.0,47,0.00,,,0.00,Wunderground v.1.15,2013-01-13 23:32:00,
2013-01-13 17:37:00,26.3,9.2,30.39,NNE,15,5.0,7.0,48,0.00,,,0.00,Wunderground v.1.15,2013-01-13 23:37:00,
2013-01-13 17:43:00,26.1,9.5,30.39,NNE,15,3.0,4.0,49,0.00,,,0.00,Wunderground v.1.15,2013-01-13 23:43:00,
2013-01-13 17:48:00,25.9,9.8,30.39,NNE,15,3.0,4.0,50,0.00,,,0.00,Wunderground v.1.15,2013-01-13 23:48:00,
2013-01-13 17:54:00,25.8,10.1,30.39,NNE,15,3.0,4.0,51,0.00,,,0.00,Wunderground v.1.15,2013-01-13 23:54:00,
2013-01-13 18:00:00,25.6,10.0,30.39,North,10,3.0,3.0,51,0.00,,,0.00,Wunderground v.1.15,2013-01-14 00:00:00,
2013-01-13 18:05:00,25.5,9.9,30.39,North,10,4.0,4.0,51,0.00,,,0.00,Wunderground v.1.15,2013-01-14 00:05:00,
2013-01-13 18:11:00,25.3,10.1,30.40,North,11,3.0,3.0,52,0.00,,,0.00,Wunderground v.1.15,2013-01-14 00:11:00,
2013-01-13 18:16:00,25.1,9.9,30.40,North,11,3.0,3.0,52,0.00,,,0.00,Wunderground v.1.15,2013-01-14 00:16:00,
2013-01-13 18:21:00,24.9,10.2,30.40,North,11,3.0,3.0,53,0.00,,,0.00,Wunderground v.1.15,2013-01-14 00:21:00,
2013-01-13 18:27:00,24.6,10.3,30.39,NNE,15,3.0,4.0,54,0.00,,,0.00,Wunderground v.1.15,2013-01-14 00:27:00,
2013-01-13 18:33:00,24.4,10.5,30.39,NNE,15,3.0,4.0,55,0.00,,,0.00,Wunderground v.1.15,2013-01-14 00:33:00,
2013-01-13 18:38:00,24.3,10.4,30.39,NNE,15,3.0,4.0,55,0.00,,,0.00,Wunderground v.1.15,2013-01-14 00:38:00,
2013-01-13 18:44:00,24.2,10.7,30.39,North,11,4.0,6.0,56,0.00,,,0.00,Wunderground v.1.15,2013-01-14 00:44:00,
2013-01-13 18:49:00,23.7,10.7,30.39,North,11,4.0,6.0,57,0.00,,,0.00,Wunderground v.1.15,2013-01-14 00:49:00,
2013-01-13 18:55:00,23.8,10.8,30.39,NNE,15,4.0,6.0,57,0.00,,,0.00,Wunderground v.1.15,2013-01-14 00:55:00,
2013-01-13 19:00:00,23.8,10.8,30.39,NNE,19,4.0,4.0,57,0.00,,,0.00,Wunderground v.1.15,2013-01-14 01:00:00,
2013-01-13 19:06:00,23.6,10.6,30.39,NNE,13,4.0,5.0,57,0.00,,,0.00,Wunderground v.1.15,2013-01-14 01:06:00,
2013-01-13 19:11:00,23.5,10.5,30.39,NNE,13,4.0,4.0,57,0.00,,,0.00,Wunderground v.1.15,2013-01-14 01:11:00,
2013-01-13 19:17:00,23.3,10.7,30.39,NNE,15,4.0,5.0,58,0.00,,,0.00,Wunderground v.1.15,2013-01-14 01:17:00,
2013-01-13 19:22:00,23.0,10.8,30.40,NNE,15,4.0,4.0,59,0.00,,,0.00,Wunderground v.1.15,2013-01-14 01:22:00,
2013-01-13 19:27:00,22.7,10.9,30.40,NNE,15,3.0,4.0,60,0.00,,,0.00,Wunderground v.1.15,2013-01-14 01:27:00,
2013-01-13 19:33:00,22.7,10.9,30.40,NNE,15,2.0,3.0,60,0.00,,,0.00,Wunderground v.1.15,2013-01-14 01:33:00,
2013-01-13 19:38:00,22.6,10.8,30.41,NNE,15,2.0,3.0,60,0.00,,,0.00,Wunderground v.1.15,2013-01-14 01:38:00,
2013-01-13 19:44:00,22.3,11.2,30.41,NNE,15,2.0,3.0,62,0.00,,,0.00,Wunderground v.1.15,2013-01-14 01:44:00,
2013-01-13 19:50:00,22.0,11.0,30.41,NNE,15,2.0,2.0,62,0.00,,,0.00,Wunderground v.1.15,2013-01-14 01:50:00,
2013-01-13 19:55:00,21.9,11.2,30.41,NNE,15,2.0,2.0,63,0.00,,,0.00,Wunderground v.1.15,2013-01-14 01:55:00,
2013-01-13 20:01:00,21.7,11.7,30.42,NNE,15,1.0,1.0,65,0.00,,,0.00,Wunderground v.1.15,2013-01-14 02:01:00,
2013-01-13 20:06:00,21.5,11.9,30.42,NNE,15,1.0,2.0,66,0.00,,,0.00,Wunderground v.1.15,2013-01-14 02:06:00,
2013-01-13 20:12:00,21.2,12.3,30.42,NNE,15,1.0,1.0,68,0.00,,,0.00,Wunderground v.1.15,2013-01-14 02:12:00,
2013-01-13 20:17:00,20.9,13.0,30.42,NNE,15,1.0,2.0,71,0.00,,,0.00,Wunderground v.1.15,2013-01-14 02:17:00,
2013-01-13 20:23:00,20.6,12.7,30.42,NNE,15,2.0,3.0,71,0.00,,,0.00,Wunderground v.1.15,2013-01-14 02:23:00,
2013-01-13 20:29:00,20.5,10.9,30.42,NNE,15,2.0,3.0,66,0.00,,,0.00,Wunderground v.1.15,2013-01-14 02:29:00,
2013-01-13 20:34:00,20.7,11.1,30.42,NNE,15,2.0,2.0,66,0.00,,,0.00,Wunderground v.1.15,2013-01-14 02:34:00,
2013-01-13 20:40:00,21.0,11.1,30.42,NNE,15,2.0,2.0,65,0.00,,,0.00,Wunderground v.1.15,2013-01-14 02:40:00,
2013-01-13 20:45:00,21.0,10.7,30.42,NNE,15,2.0,2.0,64,0.00,,,0.00,Wunderground v.1.15,2013-01-14 02:45:00,
2013-01-13 20:51:00,20.9,11.0,30.42,NNE,15,2.0,4.0,65,0.00,,,0.00,Wunderground v.1.15,2013-01-14 02:51:00,
2013-01-13 20:56:00,20.9,11.0,30.42,NNE,15,3.0,4.0,65,0.00,,,0.00,Wunderground v.1.15,2013-01-14 02:56:00,
2013-01-13 21:01:00,21.2,10.9,30.42,NNE,15,4.0,4.0,64,0.00,,,0.00,Wunderground v.1.15,2013-01-14 03:01:00,
2013-01-13 21:07:00,21.7,10.7,30.42,NNE,15,3.0,4.0,62,0.00,,,0.00,Wunderground v.1.15,2013-01-14 03:07:00,
2013-01-13 21:13:00,21.7,10.7,30.41,NNE,15,3.0,4.0,62,0.00,,,0.00,Wunderground v.1.15,2013-01-14 03:13:00,
2013-01-13 21:18:00,21.5,10.5,30.41,NNE,16,3.0,4.0,62,0.00,,,0.00,Wunderground v.1.15,2013-01-14 03:18:00,
2013-01-13 21:24:00,21.7,10.7,30.41,North,360,4.0,6.0,62,0.00,,,0.00,Wunderground v.1.15,2013-01-14 03:24:00,
2013-01-13 21:29:00,21.7,10.7,30.41,NNE,16,4.0,6.0,62,0.00,,,0.00,Wunderground v.1.15,2013-01-14 03:29:00,
2013-01-13 21:35:00,21.4,10.7,30.41,North,360,5.0,7.0,63,0.00,,,0.00,Wunderground v.1.15,2013-01-14 03:35:00,
2013-01-13 21:40:00,20.9,10.6,30.41,North,360,5.0,5.0,64,0.00,,,0.00,Wunderground v.1.15,2013-01-14 03:40:00,
2013-01-13 21:46:00,20.4,10.5,30.41,North,360,5.0,5.0,65,0.00,,,0.00,Wunderground v.1.15,2013-01-14 03:46:00,
2013-01-13 21:51:00,20.4,10.5,30.41,North,9,5.0,5.0,65,0.00,,,0.00,Wunderground v.1.15,2013-01-14 03:51:00,
2013-01-13 21:57:00,20.5,10.6,30.42,North,360,6.0,6.0,65,0.00,,,0.00,Wunderground v.1.15,2013-01-14 03:57:00,
2013-01-13 22:02:00,20.4,10.5,30.42,North,9,5.0,5.0,65,0.00,,,0.00,Wunderground v.1.15,2013-01-14 04:02:00,
2013-01-13 22:08:00,20.4,10.5,30.42,North,9,4.0,5.0,65,0.00,,,0.00,Wunderground v.1.15,2013-01-14 04:08:00,
2013-01-13 22:13:00,20.5,10.6,30.42,North,10,4.0,4.0,65,0.00,,,0.00,Wunderground v.1.15,2013-01-14 04:13:00,
2013-01-13 22:19:00,20.5,10.6,30.42,North,9,5.0,5.0,65,0.00,,,0.00,Wunderground v.1.15,2013-01-14 04:19:00,
2013-01-13 22:25:00,20.4,10.5,30.42,North,9,5.0,5.0,65,0.00,,,0.00,Wunderground v.1.15,2013-01-14 04:25:00,
2013-01-13 22:30:00,20.4,10.5,30.42,North,9,5.0,5.0,65,0.00,,,0.00,Wunderground v.1.15,2013-01-14 04:30:00,
2013-01-13 22:36:00,20.4,10.5,30.43,North,9,5.0,6.0,65,0.00,,,0.00,Wunderground v.1.15,2013-01-14 04:36:00,
2013-01-13 22:42:00,20.4,10.5,30.42,North,10,5.0,6.0,65,0.00,,,0.00,Wunderground v.1.15,2013-01-14 04:42:00,
2013-01-13 22:47:00,20.2,10.3,30.43,North,10,5.0,6.0,65,0.00,,,0.00,Wunderground v.1.15,2013-01-14 04:47:00,
2013-01-13 22:53:00,20.0,10.5,30.43,North,9,5.0,8.0,66,0.00,,,0.00,Wunderground v.1.15,2013-01-14 04:53:00,
2013-01-13 22:58:00,19.9,10.4,30.43,North,9,5.0,8.0,66,0.00,,,0.00,Wunderground v.1.15,2013-01-14 04:58:00,
2013-01-13 23:00:00,19.9,10.4,30.43,North,9,5.0,5.0,66,0.00,,,0.00,Wunderground v.1.15,2013-01-14 05:00:00,
2013-01-13 23:04:00,20.0,10.5,30.44,North,9,5.0,6.0,66,0.00,,,0.00,Wunderground v.1.15,2013-01-14 05:04:00,
2013-01-13 23:05:00,19.9,10.4,30.44,North,9,5.0,6.0,66,0.00,,,0.00,Wunderground v.1.15,2013-01-14 05:05:00,
2013-01-13 23:06:00,19.9,10.4,30.44,North,9,5.0,7.0,66,0.00,,,0.00,Wunderground v.1.15,2013-01-14 05:06:00,
2013-01-13 23:11:00,19.7,10.2,30.44,North,355,6.0,6.0,66,0.00,,,0.00,Wunderground v.1.15,2013-01-14 05:11:00,
2013-01-13 23:17:00,19.5,10.3,30.44,NNE,14,5.0,7.0,67,0.00,,,0.00,Wunderground v.1.15,2013-01-14 05:17:00,
2013-01-13 23:23:00,19.5,10.3,30.44,North,9,5.0,5.0,67,0.00,,,0.00,Wunderground v.1.15,2013-01-14 05:23:00,
2013-01-13 23:28:00,19.4,10.2,30.44,North,9,5.0,5.0,67,0.00,,,0.00,Wunderground v.1.15,2013-01-14 05:28:00,
2013-01-13 23:33:00,19.3,10.5,30.45,North,9,5.0,6.0,68,0.00,,,0.00,Wunderground v.1.15,2013-01-14 05:33:00,
2013-01-13 23:39:00,19.2,10.4,30.45,North,11,5.0,6.0,68,0.00,,,0.00,Wunderground v.1.15,2013-01-14 05:39:00,
2013-01-13 23:44:00,19.2,10.4,30.45,North,9,5.0,6.0,68,0.00,,,0.00,Wunderground v.1.15,2013-01-14 05:44:00,
2013-01-13 23:50:00,19.1,10.3,30.45,NNE,13,5.0,5.0,68,0.00,,,0.00,Wunderground v.1.15,2013-01-14 05:50:00,
2013-01-13 23:56:00,18.9,10.4,30.46,NNE,15,4.0,5.0,69,0.00,,,0.00,Wunderground v.1.15,2013-01-14 05:56:00,